Weather History for Peru, IL

Change the Weather History Date:

Tuesday, October 1, 2013

  Actual Average Record
Temperature  
Mean Temperature 68 °F -  
Max Temperature 79 °F 74 °F 90 °F (1971)
Min Temperature 58 °F 45 °F 32 °F (1974)
Cooling Degree Days 3    
Growing Degree Days 18 (Base 50)    
Moisture  
Dew Point 62 °F    
Average Humidity 81    
Maximum Humidity 97    
Minimum Humidity 58    
Precipitation  
Precipitation 0.00 in - - ()
Sea Level Pressure  
Sea Level Pressure 29.94 in    
Wind  
Wind Speed 10 mph (SSW)    
Max Wind Speed 20 mph    
Max Gust Speed 26 mph    
Visibility 8 miles    
Events      
Averages and records for this station are not official NWS values.
T = Trace of Precipitation, MM = Missing Value Source: NWS Daily Summary

Daily Weather History Graph

Daily Weather History Graph

Search for Another Location

Airport:

Trip Planner

Search our weather history database for the weather conditions in past years. The results will help you decide how hot, cold, wet, or windy it might be!

Date:

Astronomy

Oct. 01, 2013 Rise Set
Actual Time 6:53 AM CDT 6:38 PM CDT
Civil Twilight 6:26 AM CDT 7:05 PM CDT
Nautical Twilight 5:53 AM CDT 7:37 PM CDT
Astronomical Twilight 5:21 AM CDT 8:09 PM CDT
Moon 3:25 AM CDT (10/1) 4:43 PM CDT (10/1)
Length of Visible Light 12h 39m
Length of Day
11h 44m
Waning Crescent, 12% of the Moon is Illuminated
Oct 1
Waning Crescent
Oct 4
New
Oct 11
First Quarter
Oct 18
Full
Oct 26
Last Quarter

Hourly Weather History & Observations

Time (CDT) Temp. Dew Point Humidity Pressure Visibility Wind Dir Wind Speed Gust Speed Precip Events Conditions
12:15 AM 59.9 °F 55.9 °F 87% 29.90 in 10.0 mi South 8.1 mph - N/A   Clear
12:35 AM 59.9 °F 56.3 °F 88% 29.90 in 10.0 mi South 8.1 mph - N/A   Clear
12:55 AM 59.9 °F 56.7 °F 89% 29.90 in 10.0 mi South 8.1 mph - N/A   Clear
1:15 AM 59.9 °F 57.0 °F 90% 29.90 in 10.0 mi South 8.1 mph - N/A   Clear
1:35 AM 59.9 °F 57.2 °F 91% 29.91 in 10.0 mi South 5.8 mph - N/A   Clear
1:55 AM 59.7 °F 57.6 °F 93% 29.92 in 10.0 mi SSW 3.5 mph - N/A   Clear
2:15 AM 58.6 °F 56.5 °F 93% 29.92 in 7.0 mi South 5.8 mph - N/A   Clear
2:35 AM 58.1 °F 56.1 °F 93% 29.92 in 7.0 mi South 8.1 mph - N/A   Clear
2:55 AM 58.6 °F 57.2 °F 95% 29.91 in 7.0 mi South 8.1 mph - N/A   Clear
3:15 AM 58.1 °F 56.5 °F 94% 29.92 in 5.0 mi South 8.1 mph - N/A   Clear
3:35 AM 58.1 °F 56.5 °F 94% 29.92 in 5.0 mi South 8.1 mph - N/A   Clear
3:55 AM 58.3 °F 57.0 °F 96% 29.92 in 4.0 mi South 8.1 mph - N/A   Clear
4:15 AM 59.9 °F 58.6 °F 96% 29.92 in 4.0 mi South 9.2 mph - N/A   Clear
4:35 AM 59.9 °F 58.6 °F 96% 29.92 in 4.0 mi South 10.4 mph - N/A   Clear
4:55 AM 59.9 °F 59.0 °F 97% 29.93 in 4.0 mi South 10.4 mph - N/A   Clear
5:15 AM 59.9 °F 58.6 °F 96% 29.93 in 4.0 mi South 8.1 mph - N/A   Scattered Clouds
5:35 AM 60.1 °F 59.0 °F 96% 29.93 in 4.0 mi SSW 10.4 mph - N/A   Mostly Cloudy
5:55 AM 61.5 °F 60.3 °F 96% 29.94 in 4.0 mi SSW 10.4 mph - N/A   Overcast
6:15 AM 62.8 °F 61.7 °F 96% 29.94 in 4.0 mi SSW 11.5 mph - N/A   Overcast
6:35 AM 63.1 °F 61.7 °F 95% 29.95 in 4.0 mi SSW 11.5 mph - N/A   Overcast
6:55 AM 63.7 °F 62.2 °F 95% 29.95 in 4.0 mi SSW 11.5 mph - N/A   Overcast
7:15 AM 63.9 °F 62.2 °F 94% 29.96 in 3.0 mi SSW 11.5 mph - N/A   Overcast
7:35 AM 64.2 °F 62.6 °F 94% 29.96 in 3.0 mi SSW 12.7 mph - N/A   Overcast
7:55 AM 64.4 °F 62.6 °F 94% 29.97 in 3.0 mi SSW 11.5 mph - N/A   Overcast
8:15 AM 64.9 °F 63.0 °F 93% 29.97 in 3.0 mi SSW 9.2 mph - N/A   Overcast
8:35 AM 64.9 °F 63.0 °F 93% 29.97 in 3.0 mi SSW 10.4 mph - N/A   Overcast
8:55 AM 65.3 °F 62.8 °F 92% 29.98 in 3.0 mi SSW 9.2 mph - N/A   Overcast
9:15 AM 65.3 °F 63.0 °F 92% 29.98 in 3.0 mi SW 12.7 mph 18.4 mph N/A   Overcast
9:35 AM 65.7 °F 63.0 °F 91% 29.98 in 4.0 mi SSW 13.8 mph 19.6 mph N/A   Overcast
9:55 AM 65.7 °F 63.0 °F 91% 29.98 in 5.0 mi SW 11.5 mph - N/A   Overcast
10:15 AM 66.4 °F 63.3 °F 90% 29.98 in 5.0 mi SSW 10.4 mph - N/A   Overcast
10:35 AM 67.1 °F 63.5 °F 88% 29.98 in 7.0 mi SSW 15.0 mph - N/A   Overcast
10:55 AM 68.5 °F 63.3 °F 83% 29.98 in 10.0 mi SW 11.5 mph - N/A   Overcast
11:15 AM 69.1 °F 63.1 °F 81% 29.98 in 10.0 mi SW 11.5 mph 19.6 mph N/A   Overcast
11:35 AM 71.1 °F 63.9 °F 78% 29.97 in 10.0 mi SW 15.0 mph - N/A   Overcast
11:55 AM 72.1 °F 63.9 °F 75% 29.96 in 10.0 mi SSW 17.3 mph 21.9 mph N/A   Mostly Cloudy
12:15 PM 73.4 °F 63.5 °F 71% 29.96 in 10.0 mi SW 13.8 mph - N/A   Scattered Clouds
12:35 PM 75.0 °F 64.2 °F 69% 29.95 in 10.0 mi SSW 18.4 mph - N/A   Clear
12:55 PM 75.4 °F 63.7 °F 67% 29.95 in 10.0 mi SSW 13.8 mph 19.6 mph N/A   Clear
1:15 PM 75.7 °F 63.5 °F 66% 29.94 in 10.0 mi SSW 16.1 mph 21.9 mph N/A   Clear
1:35 PM 76.8 °F 63.7 °F 64% 29.93 in 10.0 mi SW 15.0 mph 18.4 mph N/A   Clear
1:55 PM 77.2 °F 63.7 °F 63% 29.93 in 10.0 mi SW 17.3 mph - N/A   Clear
2:15 PM 77.9 °F 63.7 °F 61% 29.92 in 10.0 mi SSW 18.4 mph 26.5 mph N/A   Scattered Clouds
2:35 PM 77.9 °F 63.5 °F 61% 29.92 in 10.0 mi SSW 16.1 mph - N/A   Scattered Clouds
2:55 PM 78.4 °F 63.9 °F 61% 29.92 in 10.0 mi SSW 16.1 mph 21.9 mph N/A   Clear
3:15 PM 78.3 °F 63.7 °F 61% 29.91 in 10.0 mi SSW 19.6 mph 24.2 mph N/A   Clear
3:35 PM 78.6 °F 63.5 °F 60% 29.91 in 10.0 mi SSW 18.4 mph - N/A   Clear
3:55 PM 78.6 °F 63.5 °F 60% 29.91 in 10.0 mi SW 13.8 mph - N/A   Clear
4:15 PM 78.6 °F 63.3 °F 59% 29.91 in 10.0 mi SSW 16.1 mph 20.7 mph N/A   Clear
4:35 PM 78.4 °F 62.8 °F 58% 29.91 in 10.0 mi SW 13.8 mph 19.6 mph N/A   Clear
4:55 PM 78.3 °F 62.8 °F 59% 29.92 in 10.0 mi SW 12.7 mph - N/A   Clear
5:15 PM 78.3 °F 62.8 °F 59% 29.92 in 10.0 mi SW 10.4 mph - N/A   Clear
5:35 PM 78.1 °F 62.6 °F 59% 29.92 in 10.0 mi SW 11.5 mph - N/A   Clear
5:55 PM 77.0 °F 62.2 °F 60% 29.93 in 10.0 mi SSW 11.5 mph - N/A   Clear
6:15 PM 75.7 °F 62.2 °F 63% 29.93 in 10.0 mi SSW 8.1 mph - N/A   Clear
6:35 PM 73.9 °F 62.2 °F 67% 29.93 in 10.0 mi SSW 8.1 mph - N/A   Clear
6:55 PM 72.7 °F 62.2 °F 70% 29.93 in 10.0 mi SSW 9.2 mph - N/A   Clear
7:15 PM 72.0 °F 62.2 °F 71% 29.94 in 10.0 mi SSW 8.1 mph - N/A   Clear
7:35 PM 70.7 °F 62.6 °F 75% 29.94 in 10.0 mi SSW 9.2 mph - N/A   Clear
7:55 PM 70.3 °F 62.8 °F 77% 29.95 in 10.0 mi SSW 10.4 mph - N/A   Clear
8:15 PM 70.3 °F 63.1 °F 78% 29.96 in 10.0 mi SW 10.4 mph - N/A   Clear
8:35 PM 69.8 °F 63.0 °F 79% 29.96 in 10.0 mi SW 8.1 mph - N/A   Clear
8:55 PM 69.6 °F 63.0 °F 79% 29.96 in 10.0 mi SW 9.2 mph - N/A   Clear
9:15 PM 68.4 °F 62.8 °F 82% 29.97 in 10.0 mi SSW 9.2 mph - N/A   Clear
9:35 PM 68.4 °F 63.3 °F 84% 29.97 in 10.0 mi SSW 10.4 mph - N/A   Clear
9:55 PM 68.2 °F 63.7 °F 85% 29.97 in 10.0 mi SSW 9.2 mph - N/A   Clear
10:15 PM 67.8 °F 63.9 °F 87% 29.97 in 7.0 mi SSW 9.2 mph - N/A   Clear
10:35 PM 68.0 °F 64.4 °F 88% 29.98 in 7.0 mi SSW 9.2 mph - N/A   Clear
10:55 PM 68.0 °F 64.6 °F 89% 29.98 in 5.0 mi SSW 9.2 mph - N/A   Clear
11:15 PM 67.6 °F 64.6 °F 90% 29.98 in 5.0 mi SSW 10.4 mph - N/A   Clear
11:35 PM 67.5 °F 64.6 °F 90% 29.98 in 5.0 mi SW 9.2 mph - N/A   Clear
11:55 PM 67.1 °F 64.6 °F 92% 29.98 in 4.0 mi SW 8.1 mph - N/A   Clear